Regional Weather Roundup
Issued by NWS

Home | Current Version | Previous Version | Text Only | Print | Product List | Glossary On
Versions: 1 2 3 4 5 6 7 8 9 10 11 12 13 14 15 16 17 18 19 20 21 22 23 24 25 26 27 28 29 30 31 32 33 34 35 36 37 38 39 40 41 42 43 44 45 46 47 48 49 50
358
ASUS43 KIND 291209
RWRIN

WEATHER ROUNDUP FOR INDIANA
NATIONAL WEATHER SERVICE INDIANAPOLIS IN
800 AM EDT THU JUN 29 2017

NOTE: "FAIR" INDICATES FEW OR NO CLOUDS BELOW 12,000 FEET WITH NO
SIGNIFICANT WEATHER AND/OR OBSTRUCTIONS TO VISIBILITY.

* - STATION DOES NOT REPORT WEATHER SUCH AS PRECIPITATION OR FOG.

+ - STATION NOT QUALITY CONTROLLED BY THE NATIONAL WEATHER SERVICE.
    USE DATA WITH CAUTION...ESPECIALLY DEWPOINT AND RELATIVE
    HUMIDITY OBSERVATIONS.

INZ001>003-010>013-019-020-291300-
NORTHWEST INDIANA

CITY           SKY/WX    TMP DP  RH WIND       PRES   REMARKS
GARY /AIRPORT/ PTSUNNY   75  61  60 SW12G23   29.79R
KNOX *+        CLOUDY    73  54  49 SW8       29.81S
LA PORTE +     CLOUDY    73  64  71 SW13      29.82R
6HR MIN TEMP:  70; 6HR MAX TEMP:  74;

MICHIGAN CITY+ CLOUDY    72  63  73 SW8       29.81R
MONTICELLO +   PTSUNNY   73  63  68 SW14G21   29.84R
6HR MIN TEMP:  72; 6HR MAX TEMP:  74;

RENSSELAER +   MOSUNNY   75  61  60 SW14      29.84S
VALPARAISO     CLOUDY    76  65  68 SW12      29.82R
6HR MIN TEMP:  73; 6HR MAX TEMP:  76;


$$

LMZ046-743>745-291300-
SOUTHERN LAKE MICHIGAN

STATION/POSITION TIME  TEMP    WIND        PRES    WAVE
                       AIR SEA DIR/SP/G            HT
                 (UTC) (F)     (DEG/KT/KT) (MB)    (FT)
BURNS HARBOR     1140   75     220/ 14/ 20 1009.1R
MICHIGAN CITY    1140   74     200/ 15/ 18   N/A
5NW MICH CITY    1200   71 65  220/ 12/ 17   N/A     2

$$

INZ004-005-014>016-021>024-291300-
NORTH CENTRAL INDIANA

CITY           SKY/WX    TMP DP  RH WIND       PRES   REMARKS
ELKHART        CLOUDY    73  63  68 S12G17    29.81S
GOSHEN         MOSUNNY   72  61  68 S16       29.84R
6HR MIN TEMP:  69; 6HR MAX TEMP:  73; 6HR PCP: TRACE;

LOGANSPORT +   CLOUDY    72  63  73 SW14G23   29.86R
PERU/GRISSOM   PTSUNNY   72  63  74 SW17      29.84S
6HR MIN TEMP:  69; 6HR MAX TEMP:  72;

ROCHESTER +    CLOUDY    75  63  64 SW8       29.87R
SOUTH BEND     CLOUDY    73  64  73 SW13      29.82R
6HR MIN TEMP:  65; 6HR MAX TEMP:  73; 6HR PCP: TRACE;

WARSAW +       CLOUDY    72  61  68 W8        29.87R

$$

INZ006>009-017-018-025>027-291300-
NORTHEAST INDIANA

CITY           SKY/WX    TMP DP  RH WIND       PRES   REMARKS
ANGOLA *+      SUNNY     72  64  78 S8        29.84S
AUBURN +       CLOUDY    72  59  64 SW8       29.86R
FORT WAYNE     PTSUNNY   73  60  63 S21       29.85F
6HR MIN TEMP:  70; 6HR MAX TEMP:  73;

HUNTINGTON +   MOSUNNY   70  60  70 SW13G24   29.84F
6HR MIN TEMP:  69; 6HR MAX TEMP:  70;

KENDALLVILLE + MOSUNNY   73  62  67 SW14      29.86R

$$

INZ028-029-035-036-043>045-051>053-291300-
WEST CENTRAL INDIANA

CITY           SKY/WX    TMP DP  RH WIND       PRES   REMARKS
CRAWFORDSVL +  MOSUNNY   72  64  76 SW15G25   29.87F
6HR MIN TEMP:  68; 6HR MAX TEMP:  72;

GREENCASTLE +  MOSUNNY   72  61  68 S13G20    29.89F
LAFAYETTE      PTSUNNY   74  64  71 SW13G26   29.84R
6HR MIN TEMP:  72; 6HR MAX TEMP:  74;

TERRE HAUTE    MOSUNNY   74  63  68 S16G28    29.89F
6HR MIN TEMP:  71; 6HR MAX TEMP:  74;


$$

INZ030>032-037>040-046>048-054>057-064-065-291300-
CENTRAL INDIANA

CITY           SKY/WX    TMP DP  RH WIND       PRES   REMARKS
CP ATTERBURY + MOSUNNY   72  61  68 S10G18    29.96F
COLUMBUS       SUNNY     68  57  68 S10       29.98S
FRANKFORT +    CLOUDY    75  65  70 SW16G24   29.87F
6HR MIN TEMP:  72; 6HR MAX TEMP:  75;

GREENWOOD *+   SUNNY     71  60  68 S10       29.95F
INDIANAPOLIS   PTSUNNY   72  62  71 S15       29.91F
6HR MIN TEMP:  68; 6HR MAX TEMP:  72;

-EAGLE CREEK   SUNNY     72  61  68 VRB7      29.91F
6HR MIN TEMP:  70; 6HR MAX TEMP:  72;

KOKOMO +       MOSUNNY   73  63  70 S17G30    29.86F
6HR MIN TEMP:  71; 6HR MAX TEMP:  73;

MARION +       MOSUNNY   70  59  68 S21G28    29.87F
MT COMFORT *+  MOSUNNY   68  59  73 S10       29.94F
SHELBYVILLE    MOSUNNY   70  59  68 S14       29.95F
6HR MIN TEMP:  67; 6HR MAX TEMP:  70;

ZIONSVILLE +   MOSUNNY   71  62  74 S17G25    29.90F
6HR MIN TEMP:  67; 6HR MAX TEMP:  71;


$$

INZ033-034-041-042-049-050-058-059-291300-
EAST CENTRAL INDIANA

CITY           SKY/WX    TMP DP  RH WIND       PRES   REMARKS
MUNCIE         CLOUDY    73  60  63 SW15G25   29.92F
6HR MIN TEMP:  72; 6HR MAX TEMP:  73;


$$

INZ060-061-067>069-081>083-085>088-291300-
SOUTHWEST INDIANA

CITY           SKY/WX    TMP DP  RH WIND       PRES   REMARKS
EVANSVILLE     SUNNY     73  64  73 S10       30.00F
6HR MIN TEMP:  68; 6HR MAX TEMP:  74;

HUNTINGBURG *+ SUNNY     72  65  78 S10       30.01F
6HR MIN TEMP:  67; 6HR MAX TEMP:  72;

WASHINGTON +   MOSUNNY   71  61  70 S12G17    29.96F
6HR MIN TEMP:  66; 6HR MAX TEMP:  71;


$$

INZ062-063-066-070>080-084-089>092-291300-
SOUTH CENTRAL AND SOUTHEAST INDIANA

CITY           SKY/WX    TMP DP  RH WIND       PRES   REMARKS
BEDFORD +      MOSUNNY   72  61  68 S9        29.98F
BLOOMINGTON    MOSUNNY   75  62  64 S12G22    29.96F
6HR MIN TEMP:  68; 6HR MAX TEMP:  75;

MADISON *+     MOSUNNY   70  55  60 S9        30.04F
NORTH VERNON + MOSUNNY   68  57  68 S9        30.01S
SEYMOUR +      MOSUNNY   70  61  73 S7        29.99F

$$





USA.gov is the U.S. government's official web portal to all federal, state and local government web resources and services.